Powrót do katalogu

STARLINK-31910

AktywnyŁącznośćVLEO
NORAD 59664·PAYLOAD·🇺🇸 United States

Wystrzelony May 6, 2024 z Cape Canaveral Space Force Station

Loading…

Następne Przeloty (najbliższe 24 godziny)

TLE

ŚwieżeSource: CelesTrak SupGP

Epoka: Sep 15, 2026, 03:20 UTC

1 59664C 24084L   26258.13937500 -.00029443  00000+0 -10666-2 0  2581
2 59664  43.0032  51.6571 0001664 272.1996 300.7347 15.27587882    10

Śledź STARLINK-31910 w czasie rzeczywistym z AllMySat

Download on the App Store